GW1008 Weather Reports


time (UTC)temp
C
wind
direction
speed
KPH
gust
KPH
rain 1hr
cm
rain 24hr
cm
rain mn
cm
humidity
%
barometer
mb
20260506094526 10 0 0.0 8.0 0.00 0.03 0.00 53 1015.7
20260506094013 10 0 0.0 11.3 0.00 0.03 0.00 53 1015.8
20260506093514 10 132 0.0 11.3 0.00 0.03 0.00 52 1015.8
20260506093028 10 136 1.6 11.3 0.00 0.03 0.00 52 1015.8
20260506092508 10 149 0.0 11.3 0.00 0.03 0.00 53 1015.9
20260506092014 9 159 1.6 11.3 0.00 0.03 0.00 53 1015.8
20260506091528 9 0 0.0 12.9 0.00 0.03 0.00 54 1015.9
20260506091010 9 166 3.2 12.9 0.00 0.03 0.00 54 1015.9
20260506090510 9 175 1.6 12.9 0.00 0.03 0.00 54 1015.9
20260506090027 9 78 1.6 8.0 0.00 0.03 0.00 56 1016.0
20260506085509 9 59 0.0 3.2 0.00 0.03 0.00 58 1016.1
20260506085011 8 0 0.0 0.0 0.00 0.03 0.00 61 1016.1
20260506084530 8 0 0.0 0.0 0.00 0.03 0.00 61 1016.1
20260506084009 8 0 0.0 1.6 0.00 0.03 0.00 61 1016.2
20260506083511 8 0 0.0 1.6 0.00 0.03 0.00 65 1016.3
20260506083029 7 0 0.0 0.0 0.00 0.03 0.00 67 1016.3
20260506082509 7 0 0.0 0.0 0.00 0.03 0.00 69 1016.4
20260506082012 6 0 0.0 0.0 0.00 0.03 0.00 71 1016.4
20260506081528 6 0 0.0 0.0 0.00 0.03 0.00 71 1016.4
20260506081016 6 0 0.0 0.0 0.00 0.03 0.00 71 1016.5
20260506080511 6 0 0.0 0.0 0.00 0.03 0.00 70 1016.6
20260506073510 4 0 0.0 0.0 0.00 0.10 0.00 74 1016.5
20260506073030 3 0 0.0 0.0 0.00 0.10 0.00 76 1016.6
20260506072517 3 0 0.0 0.0 0.00 0.10 0.00 78 1016.6
20260506072015 2 0 0.0 0.0 0.00 0.10 0.00 77 1016.6
20260506071527 2 0 0.0 0.0 0.00 0.10 0.00 78 1016.6
20260506071010 2 0 0.0 0.0 0.00 0.10 0.00 78 1016.6
20260506070509 2 0 0.0 0.0 0.00 0.10 0.00 80 1016.7
20260506062514 0 0 0.0 0.0 0.00 0.13 0.00 85 1016.7
20260506062010 0 0 0.0 0.0 0.00 0.13 0.00 85 1016.6
20260506061528 -1 0 0.0 0.0 0.00 0.13 0.00 86 1016.6
20260506061016 -1 0 0.0 0.0 0.00 0.13 0.00 86 1016.9
20260506060508 -1 0 0.0 0.0 0.00 0.13 0.00 86 1016.9
20260506051012 -3 0 0.0 0.0 0.00 0.13 0.00 89 1017.1
20260506050515 -3 0 0.0 0.0 0.00 0.13 0.00 88 1017.3
20260506045009 -3 0 0.0 0.0 0.00 0.13 0.00 88 1017.1
20260506044527 -3 0 0.0 0.0 0.00 0.13 0.00 88 1017.2
20260506044013 -3 0 0.0 0.0 0.00 0.13 0.00 87 1017.2
20260506043510 -3 0 0.0 0.0 0.00 0.13 0.00 87 1017.2
20260506043027 -4 0 0.0 0.0 0.00 0.13 0.00 88 1017.1
20260506042510 -4 0 0.0 0.0 0.00 0.13 0.00 87 1017.3
20260506042017 -4 0 0.0 0.0 0.00 0.13 0.00 87 1017.2
20260506041532 -4 0 0.0 0.0 0.00 0.13 0.00 88 1017.2
20260506041009 -4 0 0.0 0.0 0.00 0.13 0.00 88 1017.1
20260506040520 -4 0 0.0 0.0 0.00 0.13 0.00 87 1017.1
20260506040029 -4 0 0.0 0.0 0.00 0.13 0.00 87 1017.1
20260506035508 -4 0 0.0 0.0 0.00 0.13 0.00 87 1017.2
20260506035008 -4 0 0.0 0.0 0.00 0.13 0.00 87 1017.1
20260506034530 -4 0 0.0 0.0 0.00 0.13 0.00 86 1017.2
20260506034009 -4 0 0.0 0.0 0.00 0.13 0.00 87 1017.2
20260506033509 -4 0 0.0 0.0 0.00 0.13 0.00 86 1017.1
20260506033031 -4 0 0.0 0.0 0.00 0.13 0.00 86 1017.2
20260506032513 -3 0 0.0 0.0 0.00 0.13 0.00 86 1017.3
20260506032010 -3 0 0.0 0.0 0.00 0.13 0.00 86 1017.3
20260506031529 -3 0 0.0 0.0 0.00 0.13 0.00 86 1017.3
20260506031009 -3 0 0.0 0.0 0.00 0.13 0.00 87 1017.3
20260506030513 -3 0 0.0 0.0 0.00 0.13 0.00 86 1017.3
20260506030033 -3 0 0.0 0.0 0.00 0.13 0.00 86 1017.3
20260506025514 -3 0 0.0 0.0 0.00 0.13 0.00 86 1017.3
20260506025009 -3 0 0.0 0.0 0.00 0.13 0.00 86 1017.3
20260506024532 -3 0 0.0 0.0 0.00 0.13 0.00 86 1017.3
20260506024013 -3 0 0.0 0.0 0.00 0.13 0.00 86 1017.4
20260506023513 -3 0 0.0 0.0 0.00 0.13 0.00 86 1017.3
20260506023029 -3 0 0.0 0.0 0.00 0.13 0.00 86 1017.4
20260506022511 -3 0 0.0 0.0 0.00 0.13 0.00 87 1017.4
20260506022007 -3 0 0.0 0.0 0.00 0.13 0.00 87 1017.3
20260506021529 -3 0 0.0 0.0 0.00 0.13 0.00 87 1017.4
20260506021011 -3 0 0.0 0.0 0.00 0.13 0.00 86 1017.4
20260506020513 -3 0 0.0 0.0 0.00 0.13 0.00 85 1017.5
20260506020030 -3 0 0.0 0.0 0.00 0.13 0.00 85 1017.6
20260506015508 -3 0 0.0 0.0 0.00 0.13 0.00 85 1017.6
20260506015010 -3 0 0.0 0.0 0.00 0.13 0.00 85 1017.6
20260506014543 -3 0 0.0 0.0 0.00 0.13 0.00 85 1017.6
20260506014007 -3 0 0.0 0.0 0.00 0.13 0.00 85 1017.6
20260506013509 -3 0 0.0 0.0 0.00 0.13 0.00 86 1017.8
20260506013030 -3 0 0.0 0.0 0.00 0.13 0.00 85 1017.8
20260506012509 -2 0 0.0 0.0 0.00 0.13 0.00 85 1017.8
20260506012011 -2 0 0.0 0.0 0.00 0.13 0.00 86 1017.8
20260506011531 -2 0 0.0 0.0 0.00 0.13 0.00 85 1017.8
20260506011011 -2 0 0.0 0.0 0.00 0.13 0.00 84 1017.8
20260506010510 -2 0 0.0 0.0 0.00 0.13 0.00 84 1017.9
20260506010028 -2 0 0.0 0.0 0.00 0.13 0.00 84 1017.8
20260506005509 -2 0 0.0 0.0 0.00 0.13 0.00 85 1017.8
20260506005015 -2 0 0.0 0.0 0.00 0.13 0.00 92 1017.8
20260506004537 -2 0 0.0 0.0 0.00 0.13 0.00 86 1017.8
20260506004009 -2 0 0.0 0.0 0.00 0.13 0.00 86 1017.8
20260506003513 -2 0 0.0 0.0 0.00 0.13 0.00 85 1017.8
20260506003028 -2 0 0.0 0.0 0.00 0.13 0.00 85 1017.8
20260506002510 -2 0 0.0 0.0 0.00 0.13 0.00 85 1017.9
20260506002013 -2 0 0.0 0.0 0.00 0.13 0.00 84 1017.8
20260506001528 -2 0 0.0 0.0 0.00 0.13 0.00 84 1018.1
20260506001010 -2 0 0.0 0.0 0.00 0.13 0.00 84 1018.1
20260506000510 -2 0 0.0 0.0 0.00 0.13 0.00 85 1018.1
20260506000036 -2 0 0.0 0.0 0.00 0.13 0.00 85 1018.2
20260505235514 -2 0 0.0 0.0 0.00 0.13 0.00 84 1018.2
20260505235010 -2 0 0.0 0.0 0.00 0.13 0.00 84 1018.1
20260505234528 -2 0 0.0 0.0 0.00 0.13 0.00 84 1018.0
20260505234010 -2 0 0.0 0.0 0.00 0.13 0.00 84 1018.1
20260505233516 -2 0 0.0 0.0 0.00 0.13 0.00 84 1018.1
20260505233030 -1 0 0.0 0.0 0.00 0.13 0.00 83 1018.2
20260505232512 -1 0 0.0 0.0 0.00 0.13 0.00 83 1018.3
20260505232010 -1 0 0.0 0.0 0.00 0.13 0.00 83 1018.2
20260505231531 -1 0 0.0 0.0 0.00 0.13 0.00 83 1018.2
20260505231010 -1 0 0.0 0.0 0.00 0.13 0.00 83 1018.2
20260505230514 -1 0 0.0 0.0 0.00 0.13 0.00 82 1018.2
20260505230033 -1 0 0.0 0.0 0.00 0.13 0.00 82 1018.4
20260505225513 -1 0 0.0 0.0 0.00 0.13 0.13 82 1018.4
20260505225010 -1 0 0.0 0.0 0.00 0.13 0.13 82 1018.3
20260505224536 -1 0 0.0 0.0 0.00 0.13 0.13 82 1018.3
20260505224013 -1 0 0.0 0.0 0.00 0.13 0.13 83 1018.3
20260505223517 -1 0 0.0 0.0 0.00 0.13 0.13 83 1018.2
20260505223039 -1 0 0.0 0.0 0.00 0.13 0.13 83 1018.3
20260505222510 -1 0 0.0 0.0 0.00 0.13 0.13 82 1018.3
20260505222009 -1 0 0.0 0.0 0.00 0.13 0.13 81 1018.2
20260505221530 -1 0 0.0 0.0 0.00 0.13 0.13 81 1018.3
20260505221008 0 0 0.0 0.0 0.00 0.13 0.13 81 1018.3
20260505220510 0 0 0.0 0.0 0.00 0.13 0.13 82 1018.4
20260505220037 0 0 0.0 0.0 0.00 0.13 0.13 81 1018.4
20260505215512 0 0 0.0 0.0 0.00 0.15 0.13 81 1018.4
20260505215010 0 0 0.0 0.0 0.00 0.15 0.13 80 1018.3
20260505214547 0 0 0.0 0.0 0.00 0.15 0.13 81 1018.2
20260505214010 0 0 0.0 0.0 0.00 0.15 0.13 80 1018.2
20260505213510 0 0 0.0 0.0 0.00 0.15 0.13 80 1018.2
20260505213048 0 0 0.0 0.0 0.00 0.15 0.13 80 1018.2
20260505212510 0 0 0.0 0.0 0.00 0.15 0.13 80 1018.1
20260505212012 0 0 0.0 0.0 0.00 0.15 0.13 80 1018.2
20260505211530 0 0 0.0 0.0 0.00 0.15 0.13 80 1018.2
20260505211010 0 0 0.0 0.0 0.00 0.15 0.13 80 1018.2
20260505210508 0 0 0.0 0.0 0.00 0.15 0.13 80 1018.1
20260505210031 0 0 0.0 0.0 0.00 0.15 0.13 80 1018.1
20260505205515 0 0 0.0 0.0 0.00 0.15 0.13 80 1018.1
20260505205016 0 0 0.0 0.0 0.00 0.15 0.13 79 1018.1
20260505204532 0 0 0.0 0.0 0.00 0.15 0.13 79 1018.0
20260505204010 0 0 0.0 0.0 0.00 0.15 0.13 78 1018.1
20260505203514 0 0 0.0 0.0 0.00 0.15 0.13 77 1018.1
20260505203027 1 0 0.0 0.0 0.00 0.15 0.13 77 1018.0
20260505202509 1 0 0.0 1.6 0.00 0.15 0.13 76 1017.9
20260505202011 1 0 0.0 1.6 0.00 0.15 0.13 76 1018.0
20260505201543 1 0 0.0 4.8 0.00 0.15 0.13 75 1018.0
20260505201008 2 0 0.0 4.8 0.00 0.15 0.13 75 1017.9
20260505200512 2 0 0.0 4.8 0.00 0.15 0.13 73 1017.8
20260505200031 2 0 0.0 0.0 0.00 0.15 0.13 72 1017.8
20260505195511 3 0 0.0 0.0 0.00 0.15 0.13 70 1018.0
20260505195010 3 0 0.0 0.0 0.00 0.15 0.13 69 1017.8
20260505194530 4 0 0.0 0.0 0.00 0.15 0.13 69 1017.8
20260505194017 4 0 0.0 0.0 0.00 0.15 0.13 68 1017.8
20260505193509 5 0 0.0 0.0 0.00 0.15 0.13 67 1017.7
20260505193042 5 0 0.0 0.0 0.00 0.15 0.13 67 1017.7
20260505192511 5 0 0.0 1.6 0.00 0.15 0.13 66 1017.7
20260505192009 5 0 0.0 3.2 0.00 0.15 0.13 65 1017.6
20260505191527 5 0 0.0 3.2 0.00 0.15 0.13 64 1017.6
20260505191014 6 0 0.0 6.4 0.00 0.15 0.13 64 1017.5
20260505190507 6 0 0.0 12.9 0.00 0.15 0.13 63 1017.5
20260505190032 6 0 0.0 12.9 0.00 0.15 0.13 62 1017.5
20260505185515 6 0 0.0 8.0 0.00 0.18 0.13 60 1017.5
20260505185009 6 0 0.0 6.4 0.00 0.18 0.13 59 1017.6
20260505184530 6 0 0.0 4.8 0.00 0.18 0.13 58 1017.5
20260505184010 7 0 0.0 3.2 0.00 0.18 0.13 58 1017.5
20260505183510 7 0 0.0 4.8 0.00 0.18 0.13 57 1017.5
20260505183044 7 0 0.0 4.8 0.00 0.18 0.13 56 1017.6
20260505182509 7 0 0.0 12.9 0.00 0.18 0.13 56 1017.4
20260505182016 7 0 0.0 12.9 0.00 0.18 0.13 55 1017.4
20260505181530 7 0 0.0 12.9 0.00 0.18 0.13 55 1017.4
20260505181016 7 333 0.0 8.0 0.00 0.18 0.13 54 1017.4
20260505180510 7 352 0.0 9.7 0.00 0.18 0.13 54 1017.4
20260505180035 7 350 0.0 11.3 0.00 0.18 0.13 53 1017.4
20260505175512 7 0 0.0 11.3 0.00 0.18 0.13 55 1017.4
20260505175009 8 74 3.2 11.3 0.00 0.18 0.13 53 1017.4
20260505174536 8 67 1.6 8.0 0.00 0.18 0.13 52 1017.4
20260505174010 8 0 0.0 6.4 0.00 0.18 0.13 52 1017.4
20260505173509 8 0 0.0 8.0 0.00 0.18 0.13 52 1017.4
20260505173036 8 323 1.6 8.0 0.00 0.18 0.13 52 1017.4
20260505172508 8 80 1.6 8.0 0.00 0.18 0.13 50 1017.4
20260505172016 7 0 0.0 6.4 0.00 0.18 0.13 52 1017.5
20260505171533 7 0 0.0 8.0 0.00 0.18 0.13 52 1017.4
20260505171011 7 0 0.0 8.0 0.00 0.18 0.13 53 1017.4
20260505170516 7 0 0.0 6.4 0.00 0.18 0.13 55 1017.4
20260505170030 7 59 0.0 19.3 0.00 0.18 0.13 54 1017.4
20260505165512 7 0 0.0 19.3 0.00 0.18 0.13 52 1017.4
20260505165100 7 0 0.0 4.8 0.00 0.18 0.13 53 1017.4
20260505164535 7 0 0.0 14.5 0.00 0.18 0.13 52 1017.3
20260505164008 7 0 0.0 14.5 0.00 0.18 0.13 53 1017.4
20260505163508 7 349 1.6 14.5 0.00 0.18 0.13 52 1017.5
20260505163030 7 37 1.6 8.0 0.00 0.18 0.13 54 1017.4
20260505162508 7 0 0.0 4.8 0.00 0.18 0.13 55 1017.5
20260505162007 7 0 0.0 8.0 0.00 0.18 0.13 57 1017.5
20260505161528 7 0 0.0 8.0 0.00 0.18 0.13 60 1017.5
20260505161008 7 91 1.6 9.7 0.00 0.18 0.13 58 1017.5
20260505160511 7 5 0.0 12.9 0.00 0.18 0.13 58 1017.5
20260505153031 7 0 0.0 12.9 0.00 0.18 0.13 57 1017.6
20260505152512 7 319 1.6 12.9 0.00 0.18 0.13 56 1017.6
20260505152018 7 0 0.0 12.9 0.00 0.18 0.13 58 1017.6
20260505151528 7 0 0.0 11.3 0.00 0.18 0.13 57 1017.6
20260505151013 7 0 0.0 8.0 0.00 0.18 0.13 58 1017.6
20260505150517 7 0 0.0 6.4 0.00 0.18 0.13 58 1017.6
20260505140514 7 0 0.0 16.1 0.00 0.18 0.13 64 1017.4
20260505125007 7 0 0.0 8.0 0.00 0.18 0.13 66 1017.2
20260505124528 7 60 1.6 11.3 0.00 0.18 0.13 68 1017.2
20260505124011 7 0 3.2 11.3 0.00 0.18 0.13 67 1017.2
20260505123511 7 0 0.0 6.4 0.00 0.18 0.13 68 1017.1
20260505123044 7 0 0.0 8.0 0.00 0.18 0.13 74 1017.2
20260505122508 7 0 1.6 8.0 0.00 0.18 0.13 73 1017.3
20260505122009 7 0 0.0 12.9 0.00 0.18 0.13 74 1017.5
20260505121534 6 0 1.6 14.5 0.00 0.18 0.13 76 1017.5
20260505121011 6 0 1.6 14.5 0.00 0.18 0.13 74 1017.4
20260505120515 6 0 1.6 12.9 0.00 0.18 0.13 75 1017.5
20260505120041 6 82 0.0 19.3 0.00 0.18 0.13 73 1017.5
20260505115512 7 305 3.2 19.3 0.00 0.18 0.13 70 1017.3
20260505115016 7 0 3.2 19.3 0.00 0.18 0.13 71 1017.2
20260505114541 7 0 0.0 19.3 0.00 0.18 0.13 68 1017.1
20260505114010 7 32 0.0 19.3 0.00 0.18 0.13 70 1017.2
20260505113508 7 339 1.6 12.9 0.00 0.18 0.13 70 1017.1
20260505113029 7 342 1.6 14.5 0.00 0.18 0.13 73 1017.2
20260505112511 7 74 0.0 14.5 0.00 0.18 0.13 74 1017.2
20260505112011 7 73 0.0 12.9 0.00 0.18 0.13 77 1017.2
20260505111528 6 0 1.6 14.5 0.00 0.18 0.13 77 1017.2
20260505111011 6 0 3.2 14.5 0.00 0.18 0.13 78 1017.2
20260505110511 5 83 0.0 8.0 0.00 0.18 0.13 81 1017.3
20260505102010 6 0 0.0 19.3 0.03 0.18 0.13 73 1017.1
20260505101526 6 280 0.0 17.7 0.03 0.18 0.13 72 1017.1
20260505101009 6 341 3.2 17.7 0.03 0.18 0.13 73 1016.9
20260505100512 6 336 3.2 17.7 0.03 0.18 0.13 73 1017.1
20260505100031 6 326 1.6 17.7 0.03 0.18 0.13 75 1017.0
20260505095510 6 34 1.6 12.9 0.03 0.18 0.13 78 1016.9
20260505095015 6 0 1.6 9.7 0.03 0.18 0.13 82 1016.7